Temperature
19 20 21 21 21 20 20 19 20 20 20 21 20 20 20 21 22 22 22 23 23 23 23 23 23 23 23 22 22 22 21 21 21 21 20 20 20 19 19 18 18 18 18 18
20 20 20 21 21 21 21 20 20 21 20 19 20 20 20 21 21 21 22 22 23 23 23 23 23 23 23 22 22 22 21 21 21 20 20 20 19 19 19 19 18 18 18 17
18 19 21 20 20 20 21 20 20 20 20 19 19 19 20 20 21 21 22 22 22 23 23 23 22 22 22 22 22 21 21 21 21 20 20 20 19 19 19 19 18 18 18 17
16 19 20 20 20 20 20 20 19 19 19 19 19 20 20 21 21 21 21 22 22 22 22 22 22 22 22 21 21 21 21 20 20 20 20 20 19 19 19 18 18 18 17 17
14 17 18 19 20 19 19 20 19 18 18 19 19 19 20 21 21 21 21 22 22 22 22 22 22 22 21 21 21 21 20 20 20 20 19 19 19 18 18 18 18 17 17 17
14 17 18 19 20 20 20 19 19 18 18 18 18 18 18 20 21 21 21 22 22 22 22 22 21 21 21 21 21 20 20 20 19 19 19 19 19 18 18 18 18 17 17 16
14 16 17 17 18 19 19 19 19 18 18 18 18 19 20 20 20 21 21 21 21 21 21 21 21 21 21 20 21 20 20 20 19 19 19 19 18 18 18 18 17 17 16 16
13 15 17 17 17 18 17 18 18 18 18 18 18 19 20 20 20 20 20 20 20 21 21 21 21 21 20 20 20 20 19 19 19 19 18 18 18 18 17 17 17 16 16 16
14 15 15 16 17 18 18 18 18 18 19 18 18 19 19 19 19 19 20 20 20 20 20 20 20 20 20 20 19 19 19 18 18 18 17 17 17 17 17 16 16 16 15 15
13 14 15 16 17 18 18 18 19 19 19 18 18 18 19 19 19 19 19 19 19 19 19 19 19 19 19 19 19 18 18 18 17 17 17 17 16 16 16 16 15 15 15 15
13 14 15 16 16 17 18 18 18 18 18 18 19 18 18 18 18 19 19 19 19 19 19 19 19 18 18 18 18 18 18 17 17 17 17 16 16 16 16 15 15 15 15 15
13 14 13 15 16 16 17 17 17 17 18 18 18 18 18 18 18 18 18 18 18 18 18 18 18 18 17 17 17 17 17 17 16 16 16 16 15 15 15 15 15 15 14 14
15 15 15 16 16 16 16 17 17 17 17 17 18 18 18 18 18 18 18 18 18 18 17 17 17 17 17 17 17 17 16 16 16 16 15 15 15 15 15 15 15 14 14 14
15 15 15 15 16 16 16 16 17 17 17 17 17 17 18 18 17 17 17 17 17 17 17 17 17 16 16 16 16 16 16 15 15 15 15 15 15 15 15 14 14 14 14 14
15 15 15 15 15 15 16 16 16 16 16 16 17 17 17 17 17 17 17 17 16 16 16 16 16 16 16 15 15 15 15 15 15 14 14 14 14 14 14 14 14 14 14 14
14 14 14 15 15 15 15 15 15 15 16 16 16 16 17 16 16 16 16 16 16 16 16 15 15 15 15 15 15 15 15 14 14 14 14 14 14 14 14 14 14 13 13 13
13 13 14 14 14 14 15 15 15 15 15 16 16 16 16 16 16 16 15 15 15 15 15 15 15 15 15 15 14 14 14 14 14 14 14 14 13 13 13 13 13 13 13 13
14 14 14 14 14 14 14 14 15 15 15 15 15 15 15 15 15 15 15 15 15 15 15 15 15 15 14 14 14 14 14 14 13 13 13 13 13 13 13 13 13 13 13 12
13 13 14 14 14 14 14 14 15 15 15 15 15 15 15 15 15 14 14 14 14 14 14 14 14 14 14 14 14 13 13 13 13 13 13 13 13 13 13 12 12 12 12 12
13 13 13 13 13 14 14 14 14 14 14 14 14 14 14 14 14 14 14 14 14 14 14 14 14 13 13 13 13 13 13 13 13 13 12 12 12 12 12 12 12 12 12 12
13 13 13 13 13 13 13 14 14 14 14 14 14 14 14 14 14 14 14 14 13 13 13 13 13 13 13 13 13 13 13 13 13 12 12 12 12 12 12 12 12 12 11 11
13 13 13 13 13 13 13 13 13 14 14 14 14 14 13 13 13 13 13 13 13 13 13 13 13 13 13 13 13 13 12 12 12 12 12 12 12 12 11 11 11 11 11 11
13 13 13 13 13 13 13 13 13 13 14 13 13 13 13 13 13 13 13 13 13 13 13 13 13 13 12 12 12 12 12 12 12 12 12 12 12 11 11 11 11 11 11 11
13 13 13 13 13 13 13 13 13 13 13 13 13 13 13 13 13 13 13 13 12 12 12 12 12 12 12 12 12 12 12 12 12 12 12 12 12 11 11 11 11 11 11 11
12 12 12 13 13 13 13 13 13 13 13 13 13 13 12 12 12 12 12 12 12 12 12 12 12 12 12 12 12 12 12 12 12 11 11 11 11 11 11 11 11 11 11 10
12 12 12 12 12 12 12 12 12 12 12 12 12 12 12 12 12 12 12 12 12 12 12 12 12 12 12 12 12 11 11 11 11 11 11 11 11 11 11 11 11 10 10 10
12 12 12 12 12 12 12 12 12 12 12 12 12 12 12 12 12 12 12 12 12 12 12 12 12 11 11 11 11 11 11 11 11 11 11 11 11 11 10 10 10 10 10 10
Wind_Speed
4 4 4 4 4 6 6 8 9 9 8 9 7 6 5 5 5 5 5 5 7 7 6 6 7 8 8 8 8 9 9 9 8 7 6 6 5 5 5 4 4 4 3 3
1 2 3 2 4 6 5 5 6 5 8 7 4 2 3 5 6 7 6 6 6 6 6 7 7 8 8 8 8 9 9 8 7 6 6 6 5 5 5 4 4 3 3 3
3 2 2 3 5 5 4 4 6 7 7 2 1 3 5 5 6 6 7 6 5 6 6 6 6 7 8 7 7 7 7 7 7 6 6 5 6 5 5 4 4 3 3 3
3 3 5 8 4 4 5 4 4 4 3 3 4 2 2 3 5 5 4 5 4 4 4 4 4 5 6 7 8 7 7 6 6 6 6 5 5 6 5 4 4 4 3 3
4 4 4 5 3 3 4 4 3 4 2 1 1 3 2 1 3 4 4 4 4 4 4 4 5 6 7 6 7 7 7 7 7 7 6 6 6 5 5 5 4 4 4 4
5 5 7 8 4 2 4 4 2 3 3 2 2 1 3 2 1 2 3 3 3 4 4 5 5 7 8 7 7 7 7 6 6 7 7 7 7 6 4 4 4 4 4 3
5 5 7 6 4 2 5 7 3 4 4 5 4 5 3 2 1 2 2 3 4 4 5 5 6 7 7 6 6 6 6 6 6 6 7 7 6 5 5 5 5 4 3 3
5 5 7 3 1 5 6 3 3 3 4 4 3 1 2 3 3 3 3 3 4 4 3 3 5 7 6 4 4 4 5 6 6 6 6 5 6 5 5 5 5 4 3 2
7 7 4 2 4 4 3 3 3 2 2 3 3 2 2 2 3 3 3 3 3 4 4 3 4 6 6 4 4 5 5 5 5 5 5 5 6 6 5 5 4 4 3 3
2 4 4 3 2 2 2 3 3 3 2 4 4 3 3 3 2 3 3 3 3 5 5 3 2 3 4 4 5 6 6 5 5 5 4 4 4 5 5 5 5 4 4 4
2 3 3 3 2 1 1 1 1 0 1 3 5 3 4 4 3 3 2 2 4 5 5 4 3 3 3 4 6 6 6 5 5 5 5 4 3 3 4 5 6 6 5 5
6 6 4 5 4 2 0 1 1 0 1 0 3 4 4 3 4 4 3 3 3 4 4 4 4 3 3 4 6 7 6 5 4 4 4 4 4 2 1 2 5 7 7 6
6 5 4 4 3 2 1 2 2 1 2 2 1 3 4 3 3 4 4 3 4 4 4 4 4 4 3 4 6 7 6 6 5 4 4 4 4 4 3 1 2 4 5 6
5 3 2 3 3 2 1 1 1 1 1 1 1 2 3 3 3 3 3 4 4 4 3 3 3 3 3 4 5 5 5 5 5 4 4 4 4 4 4 4 3 2 3 5
4 4 4 3 2 1 1 0 2 2 1 1 1 2 3 3 3 3 3 3 4 5 3 3 3 2 3 4 5 5 5 4 4 4 4 4 4 4 3 4 3 3 1 2
2 1 2 1 1 1 1 1 1 0 0 1 1 2 2 3 3 3 3 4 5 4 4 3 3 2 3 4 4 4 4 5 5 4 4 4 4 4 4 4 4 4 4 4
3 2 2 2 3 2 2 3 3 2 2 2 3 3 3 4 3 3 2 3 3 3 3 4 3 3 3 4 4 3 3 4 5 4 4 4 4 4 4 4 4 4 5 4
4 5 5 5 4 3 2 1 1 2 2 2 2 3 4 4 4 3 3 3 2 1 1 2 3 3 3 3 3 3 3 4 4 4 4 3 3 4 4 4 5 5 4 4
3 4 3 3 3 3 2 2 2 2 1 2 3 3 3 3 3 3 3 3 3 2 2 2 3 3 2 3 3 3 3 3 4 3 4 4 3 3 4 4 4 4 4 3
2 3 2 2 2 2 2 1 1 1 1 2 2 3 3 2 3 3 3 2 2 2 2 2 2 1 2 2 3 2 3 3 3 3 3 3 4 4 4 4 4 4 4 4
3 3 3 3 2 2 2 2 2 2 1 2 3 3 2 2 2 3 3 1 2 1 1 2 1 1 1 2 2 2 2 3 3 3 3 4 4 4 4 4 4 4 4 4
2 3 3 3 3 2 1 2 2 3 2 2 2 3 3 2 1 1 1 1 2 1 1 1 1 1 2 2 1 1 2 2 2 2 3 3 4 4 4 4 4 4 5 5
2 3 3 3 3 3 3 2 2 2 3 3 3 3 3 2 2 2 1 1 1 1 1 1 1 2 2 1 1 1 1 2 2 3 3 4 4 4 4 4 4 4 4 5
3 3 3 3 4 5 4 2 2 1 2 2 2 2 3 2 1 1 1 1 1 1 1 1 1 1 1 1 1 1 2 2 2 3 3 3 3 3 4 4 4 4 4 4
3 3 3 3 3 3 2 2 3 3 2 2 2 2 0 1 2 1 1 1 1 1 0 0 0 0 1 1 1 1 2 2 2 2 3 3 3 3 4 4 4 3 3 3
3 2 2 2 2 2 2 2 2 1 1 2 2 2 1 1 1 1 1 1 1 1 0 1 0 0 0 1 1 2 2 2 2 2 3 2 3 3 3 3 3 3 3 3
3 3 3 3 3 2 2 2 2 0 0 1 0 1 1 1 1 1 1 1 1 1 1 1 1 0 0 1 1 1 2 1 1 2 2 2 2 3 3 4 3 3 3 3
Wind_Direction
208 207 182 188 196 186 184 183 185 223 230 254 246 230 214 187 175 163 162 162 173 178 178 179 175 171 169 170 170 169 167 174 184 181 172 170 173 172 164 164 172 169 161 157
204 210 187 210 226 205 207 193 215 235 252 261 248 180 183 187 179 172 174 182 181 175 173 179 179 175 166 167 167 163 168 177 175 170 169 173 177 170 161 163 160 154 162 165
212 274 76 255 233 201 200 200 186 214 240 266 220 197 201 197 188 184 183 185 185 184 182 187 184 175 171 169 156 157 166 170 165 165 167 173 172 164 167 168 161 155 160 151
147 114 206 236 237 201 190 213 208 222 246 225 215 212 175 179 183 181 178 177 185 188 181 173 163 157 154 149 151 157 164 167 164 163 167 163 163 167 170 164 165 168 166 158
138 174 249 283 243 176 183 243 227 216 242 307 87 57 15 247 186 180 178 177 176 176 170 157 152 148 140 146 150 159 171 175 173 169 167 167 173 177 175 164 166 167 158 164
139 161 214 237 246 215 150 254 242 182 193 178 92 125 262 263 173 154 147 146 150 142 131 138 146 144 142 152 159 176 183 178 173 171 170 175 183 182 171 160 167 160 157 169
167 196 245 252 280 115 168 233 231 190 199 186 186 208 220 177 121 122 127 134 133 131 138 152 149 142 146 154 175 186 170 161 169 177 178 175 174 173 159 155 155 160 168 179
158 181 238 262 128 171 214 226 193 187 188 185 189 176 141 135 124 117 114 121 127 125 121 125 137 139 143 168 183 162 154 154 165 171 172 168 164 165 160 157 159 166 170 186
186 206 239 237 213 237 199 188 199 189 189 169 158 152 145 142 139 131 132 134 127 130 126 129 143 147 157 178 162 152 149 156 159 158 162 163 166 166 159 157 165 175 179 196
200 258 270 278 267 261 218 205 202 189 192 161 154 164 161 150 154 147 139 144 138 138 141 153 162 152 159 157 152 151 153 157 154 150 149 150 158 162 165 173 177 183 192 206
229 266 321 316 286 272 352 47 40 30 170 171 155 160 165 156 164 166 151 154 150 154 159 166 162 156 159 161 153 150 154 156 154 152 152 155 165 172 184 196 192 195 209 207
216 219 202 254 278 284 261 289 264 116 37 180 158 157 155 155 159 156 158 160 158 155 157 164 163 166 171 163 160 157 159 163 162 161 160 163 167 164 171 205 205 206 205 199
220 217 207 236 271 274 262 267 275 231 199 216 202 156 146 152 159 149 149 155 166 169 168 164 163 170 175 165 162 165 170 172 167 165 168 173 178 183 198 240 214 216 219 214
210 186 224 240 239 265 286 292 340 20 24 160 171 137 132 133 131 141 165 175 157 142 152 160 163 181 179 165 160 162 167 172 170 172 177 182 190 194 195 200 221 249 242 226
236 202 204 222 242 285 302 92 70 35 25 53 120 135 140 147 154 166 169 154 133 128 139 150 158 182 168 160 160 163 166 172 174 176 180 184 191 193 198 206 217 228 249 251
205 171 165 180 227 245 208 161 153 238 272 186 168 169 165 158 154 145 143 143 143 152 161 167 181 190 169 162 160 166 172 174 173 176 182 184 189 194 199 210 218 226 231 230
174 205 204 213 233 237 226 215 204 206 213 210 205 183 158 144 130 127 139 142 153 168 175 176 191 184 172 174 172 177 175 175 174 179 186 189 193 200 202 210 219 228 238 228
196 207 213 211 208 216 232 228 215 202 211 206 181 158 156 153 159 170 160 139 131 156 196 188 181 176 179 182 177 177 178 180 185 193 195 196 201 207 205 212 220 229 241 233
184 201 211 207 202 190 194 214 227 223 194 158 144 146 157 151 149 160 145 144 157 195 241 195 155 157 181 188 169 168 176 183 188 194 200 196 203 215 215 219 226 232 236 236
170 172 151 133 133 153 175 186 189 157 145 140 135 125 114 120 134 139 139 153 212 229 214 154 143 160 190 185 166 171 177 184 191 198 205 200 211 221 225 227 231 235 236 237
160 148 131 127 128 133 156 162 155 156 156 138 144 145 136 128 135 140 139 165 295 285 134 135 147 196 202 179 162 174 182 188 195 203 211 213 214 223 231 232 233 237 241 243
129 132 135 141 136 130 127 132 142 141 128 123 130 128 120 117 120 115 139 209 252 189 146 145 170 183 181 169 172 181 194 202 210 217 223 225 220 223 233 239 241 245 246 245
87 112 122 127 125 107 79 72 97 130 136 139 131 138 145 165 168 157 232 279 227 164 149 169 163 156 170 176 179 194 214 225 229 232 235 236 234 233 237 243 248 250 252 251
67 80 89 99 102 94 80 46 39 80 118 122 122 140 151 151 128 185 203 204 185 166 158 157 139 138 145 187 200 217 233 236 237 242 245 244 242 242 243 245 249 252 251 252
73 80 85 96 102 108 108 71 54 55 73 70 55 43 65 161 161 167 144 152 149 116 354 18 79 185 186 188 205 227 241 242 240 243 247 246 244 245 248 245 244 244 242 243
67 73 71 73 99 113 108 96 85 46 56 61 29 10 12 38 84 96 99 110 111 100 43 8 1 346 217 210 225 237 242 245 252 252 247 241 245 251 256 254 247 240 239 244
62 65 64 52 44 62 87 102 112 121 165 124 5 329 5 64 70 71 76 73 74 67 53 34 25 3 280 246 243 250 258 257 254 257 254 250 252 253 255 261 258 251 248 252
Height
1487 1484 1485 1486 1487 1491 1493 1498 1504 1498 1494 1482 1478 1476 1476 1477 1479 1481 1483 1485 1488 1491 1493 1496 1499 1502 1506 1510 1514 1517 1520 1523 1525 1527 1529 1531 1532 1533 1535 1535 1536 1537 1537 1537
1487 1483 1483 1485 1484 1485 1487 1489 1491 1489 1487 1476 1475 1475 1476 1477 1478 1479 1481 1484 1486 1489 1492 1495 1497 1500 1503 1507 1511 1514 1517 1520 1522 1524 1526 1528 1529 1531 1532 1533 1534 1534 1535 1535
1495 1487 1485 1492 1484 1483 1483 1482 1484 1487 1481 1475 1474 1474 1473 1474 1476 1477 1479 1482 1485 1487 1490 1492 1495 1498 1501 1504 1508 1511 1514 1517 1519 1522 1524 1525 1527 1528 1529 1530 1531 1532 1533 1533
1498 1493 1502 1487 1474 1474 1476 1477 1476 1475 1474 1473 1472 1472 1473 1474 1475 1477 1479 1481 1483 1486 1488 1491 1494 1496 1499 1502 1505 1508 1511 1514 1516 1518 1521 1522 1524 1525 1526 1527 1529 1529 1529 1530
1502 1501 1493 1480 1473 1473 1476 1477 1473 1473 1472 1472 1472 1472 1473 1473 1474 1476 1478 1480 1482 1485 1487 1489 1492 1495 1497 1500 1503 1506 1508 1511 1513 1516 1518 1520 1521 1522 1523 1524 1525 1526 1527 1528
1498 1498 1499 1480 1467 1467 1472 1478 1470 1470 1471 1471 1472 1477 1475 1473 1474 1475 1477 1479 1481 1484 1486 1488 1491 1493 1496 1498 1500 1503 1505 1508 1510 1513 1514 1516 1518 1520 1521 1522 1523 1525 1525 1526
1493 1493 1485 1470 1466 1467 1482 1477 1467 1467 1468 1469 1470 1471 1471 1472 1473 1474 1476 1478 1481 1483 1484 1487 1489 1491 1493 1495 1497 1500 1502 1505 1507 1510 1511 1512 1514 1516 1517 1518 1520 1521 1523 1523
1491 1491 1485 1465 1465 1469 1469 1464 1464 1464 1466 1466 1467 1468 1469 1470 1472 1473 1475 1477 1480 1481 1483 1485 1487 1489 1491 1493 1496 1498 1500 1501 1504 1506 1507 1509 1510 1512 1514 1515 1516 1517 1519 1520
1476 1475 1465 1462 1463 1462 1462 1462 1462 1462 1463 1465 1465 1466 1467 1469 1470 1472 1474 1476 1478 1480 1482 1484 1486 1488 1490 1492 1494 1496 1498 1499 1501 1503 1504 1506 1507 1508 1510 1512 1513 1515 1516 1517
1469 1465 1462 1461 1461 1461 1461 1460 1461 1461 1462 1463 1463 1465 1466 1468 1470 1471 1472 1474 1476 1478 1480 1483 1485 1487 1489 1491 1493 1494 1495 1497 1499 1500 1502 1504 1505 1506 1507 1509 1510 1511 1512 1513
1465 1463 1461 1460 1460 1460 1459 1459 1460 1461 1461 1462 1462 1463 1464 1465 1468 1470 1471 1473 1475 1477 1479 1481 1483 1485 1487 1489 1491 1492 1494 1495 1497 1498 1499 1501 1502 1503 1505 1506 1507 1508 1509 1510
1462 1459 1460 1459 1459 1459 1458 1458 1458 1459 1460 1461 1461 1462 1463 1464 1466 1468 1469 1471 1473 1475 1477 1479 1481 1483 1485 1487 1489 1490 1491 1493 1494 1495 1497 1498 1499 1501 1502 1504 1504 1505 1506 1507
1455 1456 1457 1457 1458 1458 1458 1457 1458 1458 1459 1459 1460 1461 1461 1463 1464 1466 1468 1470 1472 1473 1475 1477 1479 1481 1483 1485 1486 1488 1489 1490 1491 1492 1493 1495 1496 1497 1498 1500 1501 1502 1502 1503
1452 1453 1454 1454 1456 1457 1457 1457 1457 1457 1458 1459 1459 1460 1461 1462 1463 1465 1466 1468 1470 1472 1474 1476 1477 1479 1481 1482 1483 1485 1486 1488 1489 1490 1491 1492 1493 1494 1495 1496 1497 1498 1499 1500
1448 1449 1451 1452 1454 1455 1455 1455 1456 1456 1457 1458 1458 1459 1460 1461 1462 1464 1466 1468 1468 1470 1472 1474 1475 1477 1479 1480 1481 1482 1483 1485 1486 1488 1489 1489 1490 1491 1492 1493 1494 1494 1495 1496
1446 1447 1448 1450 1451 1452 1453 1454 1454 1455 1456 1457 1458 1458 1460 1461 1462 1463 1465 1466 1468 1469 1470 1472 1473 1474 1476 1478 1478 1479 1481 1482 1484 1485 1486 1487 1488 1488 1489 1490 1491 1491 1492 1492
1444 1445 1446 1447 1448 1450 1451 1452 1453 1454 1455 1456 1457 1458 1458 1459 1460 1462 1463 1465 1467 1468 1470 1471 1471 1473 1474 1475 1476 1477 1478 1479 1480 1482 1482 1483 1484 1485 1485 1486 1487 1487 1488 1488
1442 1443 1445 1445 1446 1447 1449 1450 1451 1452 1453 1454 1455 1456 1457 1457 1458 1460 1462 1464 1465 1467 1467 1468 1469 1470 1471 1472 1473 1474 1475 1476 1477 1478 1479 1480 1481 1481 1482 1482 1483 1484 1484 1484
1440 1441 1442 1443 1445 1446 1447 1448 1450 1451 1452 1453 1453 1454 1455 1456 1457 1459 1460 1462 1463 1464 1465 1466 1467 1467 1469 1470 1471 1471 1472 1473 1475 1475 1476 1477 1477 1478 1479 1479 1479 1480 1480 1480
1438 1440 1441 1442 1443 1445 1446 1447 1448 1449 1451 1452 1453 1453 1454 1455 1457 1458 1459 1460 1462 1462 1463 1464 1464 1466 1467 1468 1468 1469 1470 1471 1471 1472 1473 1472 1474 1475 1475 1475 1475 1475 1475 1475
1437 1439 1440 1441 1443 1445 1446 1447 1448 1449 1450 1451 1452 1453 1453 1455 1456 1457 1458 1459 1460 1462 1462 1462 1463 1465 1465 1466 1466 1467 1467 1468 1468 1468 1469 1470 1470 1471 1471 1471 1471 1471 1471 1471
1437 1439 1440 1442 1443 1444 1445 1447 1448 1449 1450 1451 1451 1453 1453 1454 1455 1456 1457 1458 1459 1460 1461 1461 1462 1463 1463 1464 1464 1464 1465 1465 1465 1466 1466 1466 1466 1467 1467 1467 1467 1467 1467 1467
1438 1439 1440 1442 1442 1443 1445 1447 1448 1449 1450 1451 1452 1452 1453 1453 1454 1456 1456 1458 1458 1459 1459 1460 1460 1461 1461 1461 1461 1462 1462 1463 1463 1463 1463 1463 1463 1463 1463 1463 1463 1463 1462 1462
1439 1440 1441 1442 1443 1444 1445 1446 1448 1449 1450 1451 1452 1452 1453 1454 1454 1455 1456 1457 1458 1458 1459 1459 1459 1459 1460 1460 1460 1460 1460 1460 1460 1460 1460 1460 1459 1459 1459 1459 1459 1458 1458 1458
1440 1441 1443 1444 1444 1445 1446 1447 1448 1449 1451 1451 1452 1452 1453 1454 1453 1453 1455 1456 1457 1457 1457 1457 1458 1458 1458 1458 1458 1458 1458 1458 1458 1457 1457 1457 1456 1456 1456 1455 1455 1454 1454 1453
1442 1443 1444 1444 1445 1446 1447 1448 1449 1450 1451 1451 1452 1453 1453 1453 1453 1454 1454 1455 1456 1456 1456 1456 1456 1456 1456 1456 1456 1456 1456 1456 1455 1455 1455 1454 1454 1453 1453 1452 1451 1451 1450 1450
1444 1445 1445 1446 1447 1448 1449 1449 1450 1451 1451 1451 1452 1453 1453 1453 1454 1454 1455 1455 1455 1455 1456 1456 1456 1455 1455 1455 1454 1454 1454 1453 1453 1453 1452 1452 1451 1451 1450 1449 1448 1448 1447 1446